#timestamp,LO_Frequency,Hit,StdDev 
1596568955.5,286047012.0,P
1596568975.3,286047012.4,P
1596568995.2,286047011.9,P
1596569015.0,286047011.5,Y
1596569015.9,286047011.5,P
1596569035.8,286047000.8,N
1596569055.6,286047000.8,N
1596569075.4,286047000.3,N
1596569095.3,286047001.2,N
1596569115.1,286046998.2,N
1596569116.0,286046998.2,N
1596569135.8,286047000.6,N
1596569155.7,286047000.8,N
1596569175.5,286047000.3,N
1596569195.3,286047000.1,N
1596569215.2,286047002.4,N
1596569235.0,286047011.9,N
1596569235.9,286047001.9,N
1596569255.8,286047002.0,N
1596569275.6,286047002.2,N
1596569295.4,286047001.7,N
1596569315.3,286047001.3,N
1596569335.1,286047002.5,N
1596569355.9,286047001.9,N
1596569375.7,286047002.0,N
1596569395.5,286047001.6,N
1596569415.4,286047001.8,N
1596569435.2,286047003.6,N
1596569455.0,286047002.1,N
1596569455.9,286047002.1,N
1596569475.8,286047001.8,N
1596569495.6,286047005.7,N
1596569515.5,286047003.6,N
1596569535.3,286047004.0,N
1596569555.1,286047002.9,N
1596569575.9,286047005.7,N
1596569595.7,286047005.7,N
1596569615.5,286047005.7,N
1596569635.4,286047003.6,N
1596569655.2,286047001.4,N
1596569675.1,286047006.0,N
1596569676.0,286047006.0,N
1596569695.8,286047005.5,N
1596569715.6,286047006.0,N
1596569735.5,286047005.4,N
1596569755.3,286047006.0,N
1596569775.1,286047006.0,N
1596569795.9,286047006.0,Y
1596569815.7,286047002.7,P
1596569835.6,286047002.6,P
1596569855.4,286047002.4,P
1596569875.2,286047002.5,Y
1596569895.1,286046998.8,P
1596569896.0,286046998.8,N
1596569915.8,286046998.7,N
1596569935.7,286046996.5,N
1596569955.5,286046999.2,N
1596569975.3,286046998.7,N
1596569995.2,286046996.5,N
1596570015.9,286046998.4,N
1596570035.7,286046999.0,N
1596570055.6,286046998.4,N
1596570075.4,286046998.8,N
1596570095.3,286046998.8,N
1596570115.1,286046999.3,N
1596570116.0,286046999.3,N
1596570135.8,286046998.1,N
1596570155.7,286046998.1,N
1596570175.5,286047000.7,N
1596570195.3,286047001.2,N
1596570215.2,286047001.2,N
1596570235.0,286046998.2,N
1596570235.9,286046998.2,N
1596570255.8,286047000.9,N
1596570275.6,286047000.6,N
1596570295.4,286047000.8,N
1596570315.3,286047000.9,N
1596570335.1,286046999.9,N
1596570355.8,286047000.6,N
1596570375.7,286047000.0,N
1596570395.5,286046999.8,N
1596570415.4,286047000.1,N
1596570435.2,286046999.8,N
1596570455.0,286047000.9,N
1596570455.9,286047000.9,N
1596570475.8,286046999.9,N
1596570495.6,286047000.3,N
1596570515.4,286046999.7,N
1596570535.3,286047001.5,N
1596570555.1,286047002.6,N
1596570575.9,286047002.5,N
1596570595.7,286047002.0,N
1596570615.5,286047002.5,N
1596570635.4,286047002.2,N
1596570655.2,286047004.3,Y
1596570675.0,286047004.4,P
1596570675.9,286047004.4,N
1596570695.8,286047004.2,N
1596570715.6,286047001.3,N
1596570735.5,286047003.9,N
1596570755.3,286047001.6,N
1596570775.1,286047002.0,N
1596570795.9,286047003.2,N
1596570815.7,286047003.5,N
1596570835.5,286047004.2,Y
1596570855.4,286047002.4,P
1596570875.2,286047000.2,N
1596570895.1,286047000.3,N
1596570896.0,286047000.3,N
1596570915.8,286046999.7,N
1596570935.6,286047002.7,N
1596570955.5,286047002.3,N
1596570975.3,286047002.8,N
1596570995.1,286047002.8,N
1596571015.9,286047002.2,N
1596571035.7,286047002.6,N
1596571055.6,286047001.4,N
1596571075.4,286047001.7,N
1596571095.2,286047002.3,N
1596571115.1,286047001.6,N
1596571116.0,286047001.6,N
1596571135.8,286047001.9,N
1596571155.6,286047002.5,N
1596571175.5,286047001.4,N
1596571195.3,286047001.7,N
